Location: Eldred Sherwood Park Lake Dam
(42.9416°N, 93.5655°W)
Time: 02:32:09
(UTC+00:00)

Tiangong - Visible Passes

Search period start: 15 December 2025 00:00
Search period end: 25 December 2025 00:00
Orbit: 384 x 395 km, 41.5° (Epoch: 14 December)

Date Brightness Start Highest point End Pass type
(mag) Time Alt. Az. Time Alt. Az. Time Alt. Az.
22 Dec 0.4 00:14:28 10° SSE 00:15:34 11° SSE 00:15:43 11° SE visible
23 Dec 0.0 00:50:54 10° SW 00:52:32 22° SSW 00:52:32 22° SSW visible
23 Dec -0.1 23:53:03 10° SSW 23:55:23 19° SSE 23:56:56 14° ESE visible
24 Dec 1.2 01:28:50 10° WSW 01:29:14 13° WSW 01:29:14 13° WSW visible
